Location: Dodgeville, WI 53533, USA
(43.0344°N, 90.0900°W)
Time: 04:41:19
(UTC-06:00)

X-37B - Pass Details

Date: 28 January 2021
Orbit: 383 x 391 km, 45.0° (Epoch: 10 February)

Event Time Altitude Azimuth Distance (km) Brightness Sun altitude
Rises 17:52:49 0° 283° (WNW) 2,271 5.6 -8.5°
Reaches altitude 10° 17:54:53 10° 286° (WNW) 1,417 4.4 -8.8°
Maximum altitude 17:58:04 71° 11° (N) 414 0.6 -9.4°
Enters shadow 18:00:49 13° 95° (E) 1,237 2.5 -9.9°
